Weather in Kananaskis

Canada     50°55′56″N   115°07′58″W
temp.,
°C
wind,
m/s
gust,
m/s
humid.,
%
clouds,
%
prec.,
mm/h
press.,
hPa
HPBL,
m
4 december, sat
sat423:00−14sw2283100 0.0 103034
02:00−14sw2278100 0.0 102726
05:00−13wsw2275100 0.0 102238
08:00−11wsw2278100 0.0 101850
11:00−9wsw2287100 0.1 1014334
14:00−8w2379100 0.2 1010595
17:00−14wsw2294100 0.3 101618
20:00−17sw229696 0.0 102224
5 december, sun
sun523:00−14wsw2295100 0.4 102287
02:00−18sw329612 0.2 102729
05:00−17wsw2296100 0.3 102938
08:00−18ssw1199100 0.2 103426
11:00−14sse118584 0.5 1032307
14:00−11nnw127394 0.1 1030688
17:00−18ssw119737 0.3 103528
20:00−19sw329699 0.0 103729
6 december, mon
mon623:00−19sw3395100 0.0 103246
02:00−18sw3393100 0.0 102757
05:00−17wsw3389100 0.0 1022111
08:00−16wsw2389100 0.0 102091
11:00−14wnw2291100 0.5 1019327
14:00−12w127776 0.3 1017490
17:00−18sw32938 0.3 102217
20:00−20sw329521 0.0 102629
7 december, tue
tue723:00−20sw329527 0.0 102634
02:00−20wsw329486 0.0 102538
05:00−20wsw3394100 0.0 102440
08:00−19wsw339311 0.0 102343
11:00−12wsw337624 0.0 1015181
14:00−9wsw346929 0.0 1010319
17:00−15sw449094 0.0 101469
20:00−14wsw4481100 0.0 1011102
8 december, wed
wed823:00−12wsw4584100 0.2 1007164
02:00−12wsw4485100 0.0 1005156
05:00−14wsw448894 0.0 100693
08:00−15wsw4492100 0.0 100682
11:00−10wsw3483100 0.0 1001187
14:00−8wsw447821 0.0 997347
17:00−14sw439331 0.0 100250
20:00−14wsw339288 0.0 100245